Home > Weather > Kodiak > Past weeks

Flag for U.S.A. Weather for the Past 2 Weeks in Kodiak, Alaska, U.S.A.

Now
37 °F

Mostly cloudy.


Feels Like: 25 °F
Forecast: 35 / 38 °F
Wind: 28 mph from Southeast

Location: Kodiak Weather Reporting Station

Current Time: Feb 11, 2016 at 7:18:40 PM

Latest Report: Feb 11, 2016 at 6:53 PM


Visibility: 8 mi

Pressure: 29.40 "Hg

Humidity: 100%

Dew point: 37 °F

Location of KodiakLocation

Historic Weather in Kodiak — Graph

°F

Kodiak Temperature Yesterday

Maximum temperature yesterday: 39 °F (at 9:58 AM)
Minimum temperature yesterday: 36 °F (at 12:53 AM)
Average temperature yesterday: 38 °F

High & Low Weather Summary for the Past Weeks

 TemperatureHumidityPressure
High43 °F (Jan 28, 12:53 PM)100% (Jan 28, 1:53 AM)29.90 "Hg (Jan 28, 1:53 AM)
Low24 °F (Feb 6, 7:53 AM)53% (Jan 28, 12:53 PM)28.55 "Hg (Feb 4, 1:53 PM)
Average36 °F93%29.40 "Hg
* Reported Jan 28 1:53 AM — Feb 11 5:53 PM, Kodiak, Weather by CustomWeather, © 2016

Note: Actual official high and low records may vary slightly from our data, if they occured in-between our weather recording intervals... More about our weather records

Advertising

Kodiak Weather History for the Previous 24 Hours

 ConditionsComfort  
Time TempWeatherWind HumidityBarometerVisibility
5:53 PM
Thu, Feb 11
37 °FLight rain. Fog.20 mph100%29.39 "Hg4 mi
4:53 PM37 °FLight rain. Cloudy.20 mph100%29.37 "Hg8 mi
3:53 PM37 °FLight rain. Cloudy.22 mph100%29.35 "Hg7 mi
2:53 PM38 °FLight rain. Fog.22 mph100%29.34 "Hg5 mi
2:00 PM37 °FLight rain. Fog.22 mph100%29.32 "Hg2 mi
12:00 PM39 °FLight rain. Mostly cloudy.15 mph100%29.29 "Hg7 mi
10:53 AM39 °FLight rain. Fog.14 mph100%29.27 "Hg6 mi
9:53 AM39 °FLight rain. Fog.12 mph100%29.24 "Hg5 mi
8:53 AM39 °FLight rain. Fog.18 mph100%29.23 "Hg3 mi
7:53 AM39 °FLight rain. Fog.17 mph100%29.22 "Hg5 mi
6:53 AM39 °FLight rain. Mostly cloudy.18 mph100%29.22 "Hg8 mi
5:53 AM39 °FOvercast.20 mph100%29.23 "Hg9 mi
5:00 AM40 °FLight rain. Fog.20 mph100%29.22 "Hg4 mi
4:02 AM40 °FLight rain. Fog.16 mph100%29.23 "Hg6 mi
3:53 AM40 °FMostly cloudy.18 mph100%29.23 "Hg9 mi
2:53 AM39 °FLight rain. Fog.16 mph100%29.24 "Hg6 mi
1:53 AM39 °FRain. Fog.20 mph100%29.24 "Hg4 mi
12:53 AM38 °FRain. Fog.20 mph100%29.26 "Hg4 mi
12:01 AM38 °FRain. Fog.15 mph100%29.28 "Hg6 mi
11:01 PM
Wed, Feb 10
38 °FLight rain. Mostly cloudy.12 mph100%29.30 "Hg7 mi
9:53 PM37 °FLight rain. Mostly cloudy.12 mph100%29.32 "Hg10 mi
8:53 PM38 °FOvercast.8 mph93%29.33 "Hg10 mi
7:53 PM38 °FMostly cloudy.13 mph97%29.34 "Hg10 mi
Weather by CustomWeather, © 2016

See weather overviewHow to use our weather pages